Weather History for Estherville, IA

Change the Weather History Date:

Friday, August 10, 2012

  Actual Average Record
Temperature  
Mean Temperature 64 °F 70 °F  
Max Temperature 75 °F 80 °F 97 °F (1958)
Min Temperature 52 °F 60 °F 44 °F (1967)
Degree Days  
Heating Degree Days 1 0  
Month to date heating degree days 1 0  
Since 1 June heating degree days 19 50  
Since 1 July heating degree days 1 9  
Cooling Degree Days 0 5  
Month to date cooling degree days 71 59  
Year to date cooling degree days 729 451  
Since 1 June cooling degree days 640 415  
Growing Degree Days 13 (Base 50)    
Moisture  
Dew Point 53 °F    
Average Humidity 73    
Maximum Humidity 100    
Minimum Humidity 46    
Precipitation  
Precipitation 0.00 in 0.13 in 1.85 in (1974)
Month to date precipitation T 1.46  
Year to date precipitation 15.47  
Sea Level Pressure  
Sea Level Pressure 30.13 in    
Wind  
Wind Speed 6 mph (North)    
Max Wind Speed 14 mph    
Max Gust Speed 18 mph    
Visibility 10 miles    
Events      
T = Trace of Precipitation, MM = Missing Value Source: NWS Daily Summary

Daily Weather History Graph

Daily Weather History Graph

Search for Another Location

Airport:

Trip Planner

Search our weather history database for the weather conditions in past years. The results will help you decide how hot, cold, wet, or windy it might be!

Date:

Astronomy

Aug. 10, 2012 Rise Set
Actual Time 6:19 AM CDT 8:28 PM CDT
Civil Twilight 5:47 AM CDT 8:59 PM CDT
Nautical Twilight 5:08 AM CDT 9:38 PM CDT
Astronomical Twilight 4:26 AM CDT 10:20 PM CDT
Moon 12:06 AM CDT (8/10) 3:12 PM CDT (8/10)
Length of Visible Light 15h 12m
Length of Day
14h 09m
Last Quarter, 41% of the Moon is Illuminated
Aug 10
Last Quarter
Aug 17
New
Aug 24
First Quarter
Aug 31
Full
Sep 8
Last Quarter

Hourly Weather History & Observations

Time (CDT) Temp. Dew Point Humidity Pressure Visibility Wind Dir Wind Speed Gust Speed Precip Events Conditions
12:52 AM 55.0 °F 52.0 °F 89% 30.07 in 10.0 mi North 5.8 mph - N/A   Clear
1:52 AM 55.9 °F 53.1 °F 90% 30.07 in 10.0 mi NNE 8.1 mph - N/A   Clear
2:52 AM 55.0 °F 53.1 °F 93% 30.08 in 10.0 mi North 4.6 mph - N/A   Clear
3:52 AM 54.0 °F 52.0 °F 93% 30.09 in 10.0 mi NNW 4.6 mph - N/A   Clear
4:52 AM 54.0 °F 53.1 °F 97% 30.11 in 10.0 mi NNW 5.8 mph - N/A   Scattered Clouds
5:52 AM 53.1 °F 52.0 °F 96% 30.12 in 10.0 mi North 5.8 mph - N/A   Clear
6:01 AM 53.6 °F 51.8 °F 94% 30.14 in 10.0 mi NNW 5.8 mph - N/A   Scattered Clouds
6:12 AM 51.8 °F 51.8 °F 100% 30.14 in 10.0 mi NNW 5.8 mph - N/A   Mostly Cloudy
6:32 AM 53.6 °F 51.8 °F 94% 30.15 in 10.0 mi North 4.6 mph - N/A   Scattered Clouds
6:50 AM 55.4 °F 53.6 °F 94% 30.15 in 10.0 mi North 10.4 mph - N/A   Mostly Cloudy
6:52 AM 55.0 °F 54.0 °F 96% 30.14 in 10.0 mi North 9.2 mph - N/A   Mostly Cloudy
7:52 AM 57.0 °F 54.0 °F 89% 30.16 in 7.0 mi NNE 11.5 mph - N/A   Overcast
8:41 AM 57.2 °F 55.4 °F 94% 30.18 in 9.0 mi NNE 9.2 mph - N/A   Overcast
8:52 AM 57.9 °F 55.0 °F 90% 30.18 in 9.0 mi North 8.1 mph - N/A   Overcast
9:52 AM 60.1 °F 55.0 °F 83% 30.17 in 10.0 mi North 11.5 mph - N/A   Overcast
10:47 AM 62.6 °F 53.6 °F 72% 30.18 in 10.0 mi North 9.2 mph - N/A   Overcast
10:52 AM 62.1 °F 54.0 °F 75% 30.18 in 10.0 mi North 9.2 mph - N/A   Overcast
11:52 AM 64.9 °F 55.9 °F 73% 30.16 in 10.0 mi NNE 11.5 mph - N/A   Mostly Cloudy
12:52 PM 66.9 °F 55.0 °F 66% 30.16 in 10.0 mi NNE 9.2 mph - N/A   Mostly Cloudy
1:52 PM 71.1 °F 55.0 °F 57% 30.15 in 10.0 mi ENE 6.9 mph - N/A   Mostly Cloudy
2:52 PM 72.0 °F 53.1 °F 51% 30.13 in 10.0 mi NNE 8.1 mph - N/A   Partly Cloudy
3:52 PM 73.0 °F 54.0 °F 51% 30.12 in 10.0 mi NNE 5.8 mph - N/A   Partly Cloudy
4:52 PM 75.0 °F 53.1 °F 46% 30.10 in 10.0 mi Variable 5.8 mph - N/A   Scattered Clouds
5:52 PM 73.9 °F 51.1 °F 45% 30.10 in 10.0 mi NNW 4.6 mph - N/A   Scattered Clouds
6:52 PM 73.0 °F 51.1 °F 46% 30.09 in 10.0 mi NNE 8.1 mph - N/A   Clear
7:52 PM 68.0 °F 55.0 °F 63% 30.09 in 10.0 mi North 4.6 mph - N/A   Clear
8:52 PM 63.0 °F 54.0 °F 72% 30.10 in 10.0 mi North 3.5 mph - N/A   Clear
9:52 PM 59.0 °F 53.1 °F 81% 30.10 in 10.0 mi North 3.5 mph - N/A   Clear
10:52 PM 57.0 °F 52.0 °F 83% 30.10 in 10.0 mi NNE 4.6 mph - N/A   Clear
11:52 PM 55.0 °F 51.1 °F 86% 30.10 in 10.0 mi Calm Calm - N/A   Clear